Карточка аэропорта URRP

Внимание!
Информация на этой странице в стадии наполнения.
Если вы не увидели какой-то информации, или заметили неточность - пожалуйста сообщите нам!
Спасибо!
Команда RU-STAFF
Название аэропортаПлатов
Название аэропорта (англ.)Platov
Превышение282 ft. (86 m.)
Координаты47°29.634', 39°55.482'
Высота перехода3500 ft
Эшелон переходаFL50 (QNH >= 996); FL60 (QNH < 996)
Коды ответчика1001-1017
Зона ОрВДРостов-на-Дону РПИ (URRV)
Данные METARURRP 281800Z 09007MPS 9999 SCT/// 01/M02 Q1030 R05/CLRD70 NOSIG RMK QFE768/1024
Проноз погоды (TAF)URRP 281655Z 2818/2918 08008G14MPS 6000 SCT016 TEMPO 2818/2906 FEW007 TEMPO 2906/2915 10009G16MPS
NOTAMshow/hide NOTAM
AWOS   TABLE

Информация о ВПП

ВПП Длина ВПП (м.) Покрытие Курс ВПП Частота ILS
233900Цементобетон226110.9
053900Цементобетон46111.5

Диспетчерские позиции

Позывной Наименование органа УВД Частота
URRP_GNDПлатов - руление119.0
URRP_TWRПлатов-Вышка119.7
URRP_R_APPПлатов - Круг121.2
URRP_DELПлатов-деливери127.1
URRP_APPПлатов-подход128.2



Спутниковое изображение